DateTimeUTC,F1_A11,F1_S11,BsB_S11,BsG_S11,BsR_S11,BbsB_S11,BbsG_S11,BbsR_S11,BaB_A11,BaG_A11,BaR_A11,Tu_S11,T_S11,Uu_S11,U_S11,P_S11,T1_A11
2021-12-11T16:00:00Z,00000200,21000000,,,,,,,0000.04,0000.18,-000.00,20.7,27.6,,00.0,0650.0,31.1
2021-12-11T16:01:00Z,00000200,21000000,,,,,,,0000.28,0000.10,0000.08,20.7,27.6,,00.0,0650.0,31.2
2021-12-11T16:02:00Z,00000200,21000000,,,,,,,0000.13,0000.01,0000.21,20.7,27.6,,00.0,0650.0,31.2
2021-12-11T16:03:00Z,00000200,61000000,,,,,,,0000.25,0000.27,0000.18,20.7,27.6,,00.0,0650.0,31.2
2021-12-11T16:04:00Z,00000200,41000000,0000.62,0000.19,0000.41,-000.02,-000.38,-000.01,0000.24,0000.23,0000.11,21.0,27.5,,00.0,0650.9,31.2
2021-12-11T16:05:00Z,00000200,01000000,-000.18,0000.41,0000.49,0000.15,-000.18,0000.23,0000.49,0000.10,0000.10,21.1,27.5,,00.0,0650.9,31.2
2021-12-11T16:06:00Z,00000200,01000000,0000.32,0000.30,-000.05,0000.02,-000.42,0000.04,-000.20,0000.27,0000.27,21.1,27.5,,00.0,0650.9,31.2
2021-12-11T16:07:00Z,00000200,01000000,0000.89,0000.07,0000.16,0000.42,-000.33,0000.04,0000.17,0000.01,-000.48,21.1,27.5,,00.0,0650.9,31.2
2021-12-11T16:08:00Z,00000200,01000000,0000.16,-000.07,0000.31,0000.01,0000.09,-000.10,0000.33,-000.03,0000.77,21.1,27.5,,00.0,0650.9,31.2
2021-12-11T16:09:00Z,00000200,01000000,0000.53,0000.09,0000.41,-000.21,0000.12,0000.02,0000.26,0000.49,0000.08,21.0,27.5,,00.0,0650.9,31.2
2021-12-11T16:10:00Z,00000200,01000000,0000.05,0000.49,0000.00,0000.07,0000.02,-000.27,0000.40,0000.17,-000.10,21.0,27.4,,00.0,0650.9,31.2
2021-12-11T16:11:00Z,00000200,01000000,0000.15,0000.29,0000.33,0000.16,0000.04,0000.29,0000.46,0000.16,0000.45,20.9,27.4,,00.0,0650.8,31.1
2021-12-11T16:12:00Z,00000200,01000000,0000.59,0000.26,0000.09,0000.25,0000.14,0000.14,-000.15,0000.09,-000.39,20.8,27.3,,00.0,0650.8,31.1
2021-12-11T16:13:00Z,00000200,01000000,0000.17,0000.17,0000.24,0000.29,-000.07,-000.40,-000.14,-000.16,0000.20,20.7,27.3,,00.0,0650.7,31.2
2021-12-11T16:14:00Z,00000200,01000000,0000.71,0000.36,0000.35,0000.20,-000.05,-000.10,0000.34,0000.47,0000.24,20.7,27.3,,00.0,0650.7,31.2
2021-12-11T16:15:00Z,00000200,01000000,-000.02,-000.04,-000.04,-000.13,-000.28,-000.23,0000.28,0000.43,0000.02,20.7,27.2,,00.0,0650.8,31.2
2021-12-11T16:16:00Z,00000200,01000000,0000.90,0000.14,0000.07,-000.23,-000.26,0000.36,0000.25,-000.21,0000.32,20.8,27.3,,00.0,0650.8,31.1
2021-12-11T16:17:00Z,00000200,01000000,-000.31,0000.17,0000.13,0000.31,-000.18,0000.23,0000.30,0000.54,-000.07,20.8,27.3,,00.0,0650.8,31.2
2021-12-11T16:18:00Z,00000200,01000000,0000.44,0000.08,0000.12,0000.02,-000.06,0000.25,0000.04,0000.04,0000.43,20.9,27.3,,00.0,0650.8,31.2
2021-12-11T16:19:00Z,00000200,01000000,0000.17,0000.40,0000.39,0000.10,-000.06,0000.07,0000.10,-000.18,-000.20,20.9,27.3,,00.0,0650.8,31.2
2021-12-11T16:20:00Z,00000200,01000000,-000.08,-000.01,0000.05,0000.15,-000.10,0000.21,0000.18,0000.30,-000.10,21.0,27.3,,00.0,0650.9,31.2
2021-12-11T16:21:00Z,00000200,01000000,0000.57,0000.14,0000.37,0000.57,-000.00,0000.15,-000.05,0000.33,0000.45,21.0,27.3,,00.0,0650.9,31.2
2021-12-11T16:22:00Z,00000200,01000000,0000.29,0000.37,-000.04,-000.40,0000.19,0000.16,0000.12,-000.03,0000.04,21.1,27.3,,00.0,0650.9,31.2
2021-12-11T16:23:00Z,00000200,01000000,-000.15,0000.33,-000.04,-000.26,-000.07,-000.29,0000.02,0000.03,-000.04,21.1,27.4,,00.0,0650.9,31.2
2021-12-11T16:24:00Z,00000200,01000000,0000.29,0000.10,0000.31,-000.37,-000.15,0000.10,-000.03,-000.14,-000.07,21.1,27.4,,00.0,0650.9,31.2
2021-12-11T16:25:00Z,00000200,01000000,0000.42,0000.19,0000.20,0000.56,-000.18,-000.18,0000.05,-000.11,0000.07,21.1,27.4,,00.0,0650.9,31.2
2021-12-11T16:26:00Z,00000200,01000000,0000.14,0000.18,0000.18,0000.30,0000.05,-000.17,0000.21,0000.19,0000.22,21.1,27.4,,00.0,0650.9,31.2
2021-12-11T16:27:00Z,00000200,01000000,0000.38,-000.01,-000.12,0000.67,-000.07,-000.19,0000.12,0000.02,0000.14,21.0,27.4,,00.0,0650.9,31.2
2021-12-11T16:28:00Z,00000200,01000000,0000.27,-000.07,0000.10,0000.10,-000.07,0000.16,-000.03,-000.03,-000.07,21.0,27.3,,00.0,0650.9,31.2
2021-12-11T16:29:00Z,00000200,01000000,0000.50,0000.08,-000.03,0000.04,-000.04,-000.28,0000.18,0000.34,0000.10,20.9,27.3,,00.0,0650.9,31.2
2021-12-11T16:30:00Z,00000200,01000000,0000.22,0000.23,0000.27,0000.60,-000.11,-000.06,-000.07,0000.09,-000.15,21.0,27.3,,00.0,0650.9,31.2
2021-12-11T16:31:00Z,00000200,01000000,-000.07,0000.02,-000.15,-000.09,-000.09,0000.11,0000.24,-000.01,0000.11,21.0,27.3,,00.0,0650.9,31.2
2021-12-11T16:32:00Z,00000200,01000000,0000.95,0000.41,0000.27,0000.36,-000.33,-000.03,0000.28,0000.17,0000.32,21.0,27.3,,00.0,0650.9,31.2
2021-12-11T16:33:00Z,00000200,01000000,0000.75,0000.38,0000.54,-000.00,-000.22,0000.12,-000.11,-000.04,0000.03,21.1,27.4,,00.0,0650.9,31.2
2021-12-11T16:34:00Z,00000200,01000000,0000.33,0000.14,0000.18,-000.48,-000.11,-000.06,0000.14,0000.14,0000.21,21.1,27.4,,00.0,0650.9,31.2
2021-12-11T16:35:00Z,00000200,01000000,0000.10,0000.18,-000.10,0000.29,0000.06,0000.39,0000.05,0000.32,0000.10,21.2,27.4,,00.0,0650.9,31.2
2021-12-11T16:36:00Z,00000200,01000000,0000.75,0000.14,0000.18,0000.43,-000.26,-000.23,0000.31,0000.15,0000.01,21.2,27.4,,00.0,0650.9,31.2
2021-12-11T16:37:00Z,00000200,01000000,0000.64,0000.42,0000.09,0000.16,-000.13,0000.12,0000.01,-000.05,-000.05,21.3,27.4,,00.0,0650.9,31.2
2021-12-11T16:38:00Z,00000200,01000000,0000.23,0000.14,0000.32,0000.72,0000.05,0000.48,0000.31,0000.36,0000.08,21.3,27.4,,00.0,0650.9,31.3
2021-12-11T16:39:00Z,00000200,01000000,0000.77,0000.01,0000.34,0000.39,-000.09,0000.35,-000.03,0000.06,0000.18,21.3,27.5,,00.0,0650.9,31.3
2021-12-11T16:40:00Z,00000200,01000000,0000.01,0000.05,0000.03,0000.14,-000.30,-000.02,0000.35,0000.38,0000.03,21.4,27.5,,00.0,0650.9,31.3
2021-12-11T16:41:00Z,00000200,01000000,0000.02,0000.05,0000.20,0000.04,0000.32,0000.16,0000.22,-000.27,0000.12,21.4,27.5,,00.0,0650.9,31.3
2021-12-11T16:42:00Z,00000200,01000000,0000.32,0000.14,0000.22,0000.26,-000.15,0000.33,0000.02,0000.38,0000.29,21.3,27.5,,00.0,0650.9,31.3
2021-12-11T16:43:00Z,00000200,01000000,0000.95,0000.25,0000.22,0000.21,-000.10,0000.23,-000.00,0000.18,0000.22,21.3,27.5,,00.0,0650.9,31.3
2021-12-11T16:44:00Z,00000200,01000000,0000.89,0000.14,0000.10,-000.10,-000.16,0000.07,0000.12,-000.10,-000.33,21.3,27.5,,00.0,0650.9,31.3
2021-12-11T16:45:00Z,00000200,01000000,0000.57,0000.02,0000.20,0000.20,-000.18,0000.41,0000.12,0000.27,0000.27,21.3,27.5,,00.0,0650.9,31.3
2021-12-11T16:46:00Z,00000200,01000000,0000.57,-000.04,0000.48,0000.25,-000.07,-000.16,0000.56,0000.23,0000.08,21.3,27.5,,00.0,0650.8,31.3
2021-12-11T16:47:00Z,00000200,01000000,0000.79,0000.05,0000.05,-000.26,-000.07,0000.13,0000.21,0000.21,0000.50,21.3,27.5,,00.0,0650.9,31.3
2021-12-11T16:48:00Z,00000200,01000000,0001.35,0000.09,0000.20,-000.04,0000.33,-000.42,0000.02,0000.34,0000.19,21.3,27.5,,00.0,0650.8,31.3
2021-12-11T16:49:00Z,00000200,01000000,-000.23,0000.17,-000.13,0000.02,0000.07,-000.01,0000.20,-000.31,-000.16,21.4,27.5,,00.0,0650.8,31.3
2021-12-11T16:50:00Z,00000200,01000000,0001.15,-000.05,0000.23,-000.06,-000.12,-000.21,0000.33,0000.41,0000.16,21.4,27.6,,00.0,0650.9,31.3
2021-12-11T16:51:00Z,00000200,01000000,-000.02,0000.20,0000.39,0000.72,-000.28,-000.17,-000.02,-000.01,-000.32,21.4,27.6,,00.0,0650.9,31.3
2021-12-11T16:52:00Z,00000200,01000000,0001.02,-000.07,0000.06,0000.05,-000.15,0000.04,-000.11,0000.17,0000.28,21.5,27.6,,00.0,0650.9,31.3
2021-12-11T16:53:00Z,00000200,01000000,0000.30,0000.37,0000.07,0000.14,0000.09,-000.25,0000.22,-000.08,0000.06,21.4,27.6,,00.0,0650.8,31.3
2021-12-11T16:54:00Z,00000200,01000000,0000.68,0000.32,0000.13,0000.58,-000.00,0000.03,0000.10,0000.32,-000.08,21.4,27.6,,00.0,0650.8,31.3
2021-12-11T16:55:00Z,00000200,01000000,0000.68,0000.42,0000.31,0000.14,-000.19,0000.32,0000.08,0000.13,0000.25,21.3,27.6,,00.0,0650.8,31.3
2021-12-11T16:56:00Z,00000200,01000000,0000.42,0000.02,0000.45,0000.04,-000.17,-000.12,0000.14,-000.17,-000.20,21.2,27.6,,00.0,0650.8,31.3
2021-12-11T16:57:00Z,00000200,41000000,,,,,,,-000.41,-000.48,-000.13,21.2,27.6,,00.0,0650.5,31.2
2021-12-11T16:58:00Z,00000200,61000000,,,,,,,-000.05,0000.33,0000.29,20.8,27.6,,00.0,0649.8,31.2
2021-12-11T16:59:00Z,00000200,21000000,,,,,,,0000.22,0000.17,0000.24,20.8,27.7,,00.0,0649.8,31.2
